| time (UTC) | temp F | wind direction | speed MPH | gust MPH | rain 1hr in | rain 24hr in | rain mn in | humidity % | barometer mb |
| 20260831175002 | 77 | 338 | 3.0 | 7.0 | 0.00 | 0.00 | 0.00 | 67 | 1018.2 |
| 20260831174457 | 76 | 189 | 0.0 | 3.0 | 0.00 | 0.00 | 0.00 | 66 | 1018.3 |
| 20260831173956 | 76 | 155 | 0.0 | 2.0 | 0.00 | 0.00 | 0.00 | 66 | 1018.6 |
| 20260831173455 | 78 | 4 | 3.0 | 4.0 | 0.00 | 0.00 | 0.00 | 64 | 1018.3 |
| 20260831172951 | 77 | 212 | 2.0 | 5.0 | 0.00 | 0.00 | 0.00 | 71 | 1018.5 |
| 20260831172446 | 78 | 312 | 5.0 | 7.0 | 0.00 | 0.00 | 0.00 | 62 | 1018.2 |
| 20260831171941 | 77 | 333 | 0.0 | 5.0 | 0.00 | 0.00 | 0.00 | 64 | 1018.6 |
| 20260831171432 | 77 | 275 | 2.0 | 7.0 | 0.00 | 0.00 | 0.00 | 65 | 1018.6 |
| 20260831170928 | 77 | 171 | 0.0 | 3.0 | 0.00 | 0.00 | 0.00 | 63 | 1018.5 |
| 20260831170424 | 78 | 37 | 2.0 | 3.0 | 0.00 | 0.00 | 0.00 | 60 | 1018.6 |
| 20260831165921 | 76 | 284 | 0.0 | 6.0 | 0.00 | 0.00 | 0.00 | 61 | 1018.6 |
| 20260831165416 | 77 | 30 | 2.0 | 3.0 | 0.00 | 0.00 | 0.00 | 60 | 1018.8 |
| 20260831164913 | 75 | 348 | 0.0 | 4.0 | 0.00 | 0.00 | 0.00 | 64 | 1018.8 |
| 20260831164409 | 74 | 175 | 0.0 | 2.0 | 0.00 | 0.00 | 0.00 | 73 | 1018.9 |
| 20260831163904 | 76 | 157 | 1.0 | 5.0 | 0.00 | 0.00 | 0.00 | 68 | 1018.8 |
| 20260831163359 | 76 | 21 | 3.0 | 5.0 | 0.00 | 0.00 | 0.00 | 63 | 1019.0 |
| 20260831162858 | 75 | 126 | 3.0 | 4.0 | 0.00 | 0.00 | 0.00 | 65 | 1019.0 |
| 20260831162353 | 77 | 131 | 2.0 | 4.0 | 0.00 | 0.00 | 0.00 | 67 | 1019.2 |
| 20260831161852 | 77 | 0 | 2.0 | 3.0 | 0.00 | 0.00 | 0.00 | 70 | 1019.2 |
| 20260831161348 | 76 | 295 | 2.0 | 4.0 | 0.00 | 0.00 | 0.00 | 64 | 1018.9 |
| 20260831160843 | 75 | 280 | 3.0 | 4.0 | 0.00 | 0.00 | 0.00 | 66 | 1019.1 |
| 20260831160338 | 75 | 174 | 2.0 | 2.0 | 0.00 | 0.00 | 0.00 | 69 | 1019.1 |
| 20260831155833 | 75 | 343 | 2.0 | 4.0 | 0.00 | 0.00 | 0.00 | 68 | 1019.4 |
| 20260831155332 | 75 | 100 | 0.0 | 2.0 | 0.00 | 0.00 | 0.00 | 64 | 1019.1 |
| 20260831154828 | 75 | 112 | 0.0 | 4.0 | 0.00 | 0.00 | 0.00 | 63 | 1019.3 |
| 20260831154325 | 74 | 282 | 4.0 | 7.0 | 0.00 | 0.00 | 0.00 | 66 | 1019.2 |
| 20260831153823 | 75 | 283 | 2.0 | 7.0 | 0.00 | 0.00 | 0.00 | 76 | 1019.3 |
| 20260831153319 | 76 | 103 | 2.0 | 5.0 | 0.00 | 0.00 | 0.00 | 69 | 1019.3 |
| 20260831152815 | 75 | 315 | 5.0 | 5.0 | 0.00 | 0.00 | 0.00 | 72 | 1019.3 |
| 20260831152311 | 75 | 343 | 3.0 | 5.0 | 0.00 | 0.00 | 0.00 | 70 | 1019.3 |
| 20260831151806 | 75 | 295 | 0.0 | 5.0 | 0.00 | 0.00 | 0.00 | 77 | 1019.1 |
| 20260831151305 | 75 | 272 | 2.0 | 7.0 | 0.00 | 0.00 | 0.00 | 72 | 1019.0 |
| 20260831150800 | 75 | 12 | 1.0 | 3.0 | 0.00 | 0.00 | 0.00 | 71 | 1019.2 |
| 20260831150255 | 75 | 99 | 3.0 | 5.0 | 0.00 | 0.00 | 0.00 | 72 | 1019.2 |
| 20260831145754 | 75 | 81 | 6.0 | 7.0 | 0.00 | 0.00 | 0.00 | 71 | 1019.1 |
| 20260831145251 | 75 | 332 | 2.0 | 5.0 | 0.00 | 0.00 | 0.00 | 73 | 1019.2 |
| 20260831144746 | 75 | 77 | 2.0 | 3.0 | 0.00 | 0.00 | 0.00 | 72 | 1019.4 |
| 20260831144243 | 75 | 73 | 3.0 | 7.0 | 0.00 | 0.00 | 0.00 | 72 | 1019.4 |
| 20260831143742 | 74 | 299 | 3.0 | 7.0 | 0.00 | 0.00 | 0.00 | 75 | 1019.4 |
| 20260831143238 | 74 | 286 | 2.0 | 4.0 | 0.00 | 0.00 | 0.00 | 75 | 1019.3 |
| 20260831142733 | 73 | 88 | 0.0 | 3.0 | 0.00 | 0.00 | 0.00 | 83 | 1019.2 |
| 20260831142228 | 74 | 318 | 3.0 | 5.0 | 0.00 | 0.00 | 0.00 | 75 | 1019.3 |
| 20260831141727 | 72 | 284 | 3.0 | 6.0 | 0.00 | 0.00 | 0.00 | 78 | 1019.0 |
| 20260831141223 | 73 | 298 | 1.0 | 4.0 | 0.00 | 0.00 | 0.00 | 80 | 1019.2 |
| 20260831140722 | 72 | 66 | 0.0 | 4.0 | 0.00 | 0.00 | 0.00 | 78 | 1019.0 |
| 20260831140217 | 73 | 260 | 0.0 | 5.0 | 0.00 | 0.00 | 0.00 | 77 | 1019.2 |
| 20260831135715 | 72 | 122 | 0.0 | 6.0 | 0.00 | 0.00 | 0.00 | 77 | 1019.2 |
| 20260831135211 | 74 | 58 | 2.0 | 4.0 | 0.00 | 0.00 | 0.00 | 77 | 1018.9 |
| 20260831134706 | 73 | 93 | 1.0 | 3.0 | 0.00 | 0.00 | 0.00 | 80 | 1019.0 |
| 20260831134203 | 72 | 292 | 0.0 | 3.0 | 0.00 | 0.00 | 0.00 | 84 | 1019.1 |
| 20260831133701 | 71 | 259 | 3.0 | 4.0 | 0.00 | 0.00 | 0.00 | 85 | 1019.1 |
| 20260831133155 | 71 | 286 | 0.0 | 4.0 | 0.00 | 0.00 | 0.00 | 87 | 1019.0 |
| 20260831132652 | 71 | 274 | 0.0 | 3.0 | 0.00 | 0.00 | 0.00 | 85 | 1019.2 |
| 20260831132150 | 70 | 275 | 1.0 | 3.0 | 0.00 | 0.00 | 0.00 | 89 | 1019.0 |
| 20260831131645 | 71 | 268 | 3.0 | 6.0 | 0.00 | 0.00 | 0.00 | 88 | 1019.2 |
| 20260831131142 | 69 | 60 | 0.0 | 4.0 | 0.00 | 0.00 | 0.00 | 91 | 1019.1 |
| 20260831130637 | 69 | 301 | 3.0 | 4.0 | 0.00 | 0.00 | 0.00 | 92 | 1019.2 |
| 20260831130133 | 68 | 51 | 2.0 | 4.0 | 0.00 | 0.00 | 0.00 | 94 | 1019.2 |
| 20260831125631 | 67 | 236 | 0.0 | 3.0 | 0.00 | 0.00 | 0.00 | 98 | 1019.1 |
| 20260831125127 | 67 | 242 | 0.0 | 2.0 | 0.00 | 0.00 | 0.00 | 99 | 1019.1 |
| 20260831124622 | 67 | 262 | 2.0 | 6.0 | 0.00 | 0.00 | 0.00 | 99 | 1019.2 |
| 20260831124119 | 67 | 273 | 0.0 | 2.0 | 0.00 | 0.00 | 0.00 | 99 | 1019.3 |
| 20260831123618 | 66 | 242 | 0.0 | 2.0 | 0.00 | 0.00 | 0.00 | 99 | 1019.1 |
| 20260831123112 | 65 | 283 | 0.0 | 1.0 | 0.00 | 0.00 | 0.00 | 99 | 1019.1 |
| 20260831122611 | 65 | 188 | 1.0 | 3.0 | 0.00 | 0.00 | 0.00 | 99 | 1018.9 |
| 20260831122108 | 65 | 66 | 0.0 | 2.0 | 0.00 | 0.00 | 0.00 | 99 | 1019.1 |
| 20260831121607 | 64 | 113 | 0.0 | 3.0 | 0.00 | 0.00 | 0.00 | 99 | 1018.9 |
| 20260831121103 | 64 | 168 | 0.0 | 2.0 | 0.00 | 0.00 | 0.00 | 99 | 1019.1 |
| 20260831120603 | 64 | 268 | 1.0 | 2.0 | 0.00 | 0.00 | 0.00 | 99 | 1019.1 |
| 20260831120058 | 63 | 349 | 0.0 | 4.0 | 0.00 | 0.00 | 0.00 | 99 | 1019.1 |
| 20260831115554 | 63 | 310 | 1.0 | 2.0 | 0.00 | 0.00 | 0.00 | 99 | 1018.9 |
| 20260831115049 | 63 | 293 | 0.0 | 1.0 | 0.00 | 0.00 | 0.00 | 99 | 1019.0 |
| 20260831114548 | 62 | 287 | 0.0 | 1.0 | 0.00 | 0.00 | 0.00 | 99 | 1018.9 |
| 20260831114043 | 62 | 87 | 0.0 | 2.0 | 0.00 | 0.00 | 0.00 | 99 | 1018.6 |
| 20260831113542 | 62 | 61 | 0.0 | 2.0 | 0.00 | 0.00 | 0.00 | 99 | 1018.8 |
| 20260831113038 | 62 | 217 | 0.0 | 2.0 | 0.00 | 0.00 | 0.00 | 99 | 1019.1 |
| 20260831112537 | 61 | 162 | 0.0 | 0.0 | 0.00 | 0.00 | 0.00 | 99 | 1019.0 |
| 20260831112033 | 61 | 158 | 0.0 | 1.0 | 0.00 | 0.00 | 0.00 | 99 | 1018.9 |
| 20260831111529 | 61 | 50 | 0.0 | 2.0 | 0.00 | 0.00 | 0.00 | 99 | 1018.8 |
| 20260831111024 | 61 | 342 | 0.0 | 1.0 | 0.00 | 0.00 | 0.00 | 99 | 1018.6 |
| 20260831110519 | 61 | 265 | 0.0 | 2.0 | 0.00 | 0.00 | 0.00 | 99 | 1018.6 |
| 20260831110014 | 61 | 103 | 1.0 | 2.0 | 0.00 | 0.00 | 0.00 | 99 | 1018.4 |
| 20260831105508 | 61 | 305 | 0.0 | 1.0 | 0.00 | 0.00 | 0.00 | 99 | 1018.3 |
| 20260831105003 | 61 | 324 | 0.0 | 2.0 | 0.00 | 0.00 | 0.00 | 99 | 1018.3 |
| 20260831104459 | 60 | 204 | 0.0 | 1.0 | 0.00 | 0.00 | 0.00 | 99 | 1018.4 |
| 20260831103955 | 60 | 312 | 0.0 | 1.0 | 0.00 | 0.00 | 0.00 | 99 | 1018.1 |
| 20260831103455 | 60 | 122 | 0.0 | 0.0 | 0.00 | 0.00 | 0.00 | 99 | 1018.1 |
| 20260831102950 | 60 | 62 | 0.0 | 0.0 | 0.00 | 0.00 | 0.00 | 99 | 1018.2 |
| 20260831102445 | 61 | 305 | 0.0 | 1.0 | 0.00 | 0.00 | 0.00 | 99 | 1018.2 |
| 20260831101940 | 61 | 125 | 0.0 | 1.0 | 0.00 | 0.00 | 0.00 | 99 | 1018.1 |
| 20260831101435 | 61 | 115 | 0.0 | 2.0 | 0.00 | 0.00 | 0.00 | 99 | 1018.0 |
| 20260831100931 | 61 | 59 | 0.0 | 1.0 | 0.00 | 0.00 | 0.00 | 99 | 1018.1 |
| 20260831100427 | 61 | 285 | 0.0 | 2.0 | 0.00 | 0.00 | 0.00 | 99 | 1018.1 |
| 20260831095922 | 61 | 62 | 0.0 | 1.0 | 0.00 | 0.00 | 0.00 | 99 | 1018.1 |
| 20260831095421 | 61 | 125 | 0.0 | 1.0 | 0.00 | 0.00 | 0.00 | 99 | 1017.9 |
| 20260831094916 | 61 | 83 | 0.0 | 1.0 | 0.00 | 0.00 | 0.00 | 99 | 1018.1 |
| 20260831094412 | 61 | 122 | 0.0 | 1.0 | 0.00 | 0.00 | 0.00 | 99 | 1018.0 |
| 20260831093908 | 61 | 136 | 0.0 | 2.0 | 0.00 | 0.00 | 0.00 | 99 | 1017.8 |
| 20260831093402 | 61 | 39 | 0.0 | 2.0 | 0.00 | 0.00 | 0.00 | 99 | 1017.9 |
| 20260831092859 | 61 | 229 | 0.0 | 1.0 | 0.00 | 0.00 | 0.00 | 99 | 1018.0 |
| 20260831092355 | 61 | 310 | 0.0 | 1.0 | 0.00 | 0.00 | 0.00 | 99 | 1017.7 |
| 20260831091850 | 61 | 155 | 0.0 | 1.0 | 0.00 | 0.00 | 0.00 | 99 | 1017.8 |
| 20260831091345 | 61 | 161 | 0.0 | 1.0 | 0.00 | 0.00 | 0.00 | 99 | 1017.8 |
| 20260831090840 | 61 | 341 | 0.0 | 2.0 | 0.00 | 0.00 | 0.00 | 99 | 1017.9 |
| 20260831090336 | 61 | 4 | 0.0 | 2.0 | 0.00 | 0.00 | 0.00 | 99 | 1017.8 |
| 20260831085832 | 61 | 243 | 0.0 | 2.0 | 0.00 | 0.00 | 0.00 | 99 | 1017.8 |
| 20260831085326 | 61 | 355 | 0.0 | 1.0 | 0.00 | 0.00 | 0.00 | 99 | 1017.7 |
| 20260831084821 | 61 | 346 | 0.0 | 0.0 | 0.00 | 0.00 | 0.00 | 99 | 1017.9 |
| 20260831084318 | 61 | 327 | 0.0 | 1.0 | 0.00 | 0.00 | 0.00 | 99 | 1017.8 |
| 20260831083813 | 61 | 327 | 2.0 | 2.0 | 0.00 | 0.00 | 0.00 | 99 | 1017.9 |
| 20260831083309 | 61 | 272 | 1.0 | 2.0 | 0.00 | 0.00 | 0.00 | 99 | 1017.7 |
| 20260831082808 | 61 | 9 | 0.0 | 1.0 | 0.00 | 0.00 | 0.00 | 99 | 1017.6 |
| 20260831082306 | 61 | 49 | 0.0 | 2.0 | 0.00 | 0.00 | 0.00 | 99 | 1017.7 |
| 20260831081758 | 61 | 229 | 0.0 | 1.0 | 0.00 | 0.00 | 0.00 | 99 | 1017.7 |
| 20260831081254 | 62 | 9 | 0.0 | 2.0 | 0.00 | 0.00 | 0.00 | 99 | 1017.7 |
| 20260831080749 | 62 | 37 | 2.0 | 2.0 | 0.00 | 0.00 | 0.00 | 99 | 1017.7 |
| 20260831080243 | 62 | 92 | 0.0 | 1.0 | 0.00 | 0.00 | 0.00 | 99 | 1017.8 |
| 20260831075739 | 61 | 62 | 0.0 | 1.0 | 0.00 | 0.00 | 0.00 | 99 | 1018.0 |
| 20260831075235 | 62 | 346 | 0.0 | 0.0 | 0.00 | 0.00 | 0.00 | 99 | 1017.7 |
| 20260831074734 | 62 | 44 | 0.0 | 0.0 | 0.00 | 0.00 | 0.00 | 99 | 1017.6 |
| 20260831074228 | 62 | 315 | 0.0 | 1.0 | 0.00 | 0.00 | 0.00 | 99 | 1017.6 |
| 20260831073724 | 62 | 189 | 0.0 | 1.0 | 0.00 | 0.00 | 0.00 | 99 | 1017.7 |
| 20260831073223 | 62 | 23 | 2.0 | 2.0 | 0.00 | 0.00 | 0.00 | 99 | 1017.5 |
| 20260831072718 | 62 | 295 | 0.0 | 3.0 | 0.00 | 0.00 | 0.00 | 99 | 1017.3 |
| 20260831072215 | 62 | 284 | 0.0 | 2.0 | 0.00 | 0.00 | 0.00 | 99 | 1017.5 |
| 20260831071714 | 63 | 338 | 1.0 | 3.0 | 0.02 | 0.00 | 0.00 | 99 | 1017.8 |
| 20260831071208 | 63 | 329 | 0.0 | 2.0 | 0.02 | 0.00 | 0.00 | 99 | 1017.7 |
| 20260831070703 | 63 | 175 | 0.0 | 1.0 | 0.00 | 0.00 | 0.00 | 99 | 1017.5 |
| 20260831070157 | 63 | 36 | 2.0 | 3.0 | 0.00 | 0.00 | 0.00 | 99 | 1017.4 |
| 20260831065656 | 63 | 73 | 0.0 | 2.0 | 0.00 | 0.00 | 0.00 | 99 | 1017.3 |
| 20260831065155 | 63 | 49 | 2.0 | 3.0 | 0.00 | 0.00 | 0.00 | 99 | 1017.0 |
| 20260831064650 | 64 | 21 | 3.0 | 3.0 | 0.00 | 0.00 | 0.00 | 99 | 1017.1 |
| 20260831064145 | 63 | 359 | 1.0 | 3.0 | 0.00 | 0.00 | 0.00 | 99 | 1017.0 |
| 20260831063641 | 63 | 37 | 0.0 | 2.0 | 0.00 | 0.00 | 0.00 | 99 | 1017.2 |
| 20260831063131 | 64 | 37 | 0.0 | 3.0 | 0.00 | 0.00 | 0.00 | 99 | 1017.1 |
| 20260831062630 | 64 | 28 | 1.0 | 2.0 | 0.00 | 0.00 | 0.00 | 99 | 1017.1 |
| 20260831062124 | 64 | 31 | 4.0 | 4.0 | 0.00 | 0.00 | 0.00 | 99 | 1017.1 |
| 20260831061623 | 64 | 73 | 2.0 | 3.0 | 0.00 | 0.00 | 0.00 | 99 | 1017.2 |
| 20260831061119 | 64 | 125 | 0.0 | 2.0 | 0.00 | 0.00 | 0.00 | 99 | 1017.1 |
| 20260831060615 | 64 | 323 | 0.0 | 2.0 | 0.00 | 0.00 | 0.00 | 99 | 1017.1 |
| 20260831060114 | 64 | 15 | 2.0 | 3.0 | 0.00 | 0.00 | 0.00 | 99 | 1017.2 |
| 20260831055608 | 64 | 73 | 0.0 | 1.0 | 0.00 | 0.00 | 0.00 | 99 | 1017.4 |
| 20260831055104 | 64 | 95 | 3.0 | 7.0 | 0.00 | 0.00 | 0.00 | 99 | 1017.1 |
| 20260831054604 | 64 | 18 | 2.0 | 4.0 | 0.00 | 0.00 | 0.00 | 99 | 1017.0 |
| 20260831054103 | 64 | 115 | 0.0 | 1.0 | 0.00 | 0.00 | 0.00 | 99 | 1017.1 |
| 20260831053602 | 64 | 208 | 2.0 | 3.0 | 0.00 | 0.00 | 0.00 | 99 | 1017.0 |
| 20260831053057 | 64 | 301 | 2.0 | 3.0 | 0.00 | 0.00 | 0.00 | 99 | 1016.8 |
| 20260831052555 | 64 | 187 | 1.0 | 2.0 | 0.00 | 0.00 | 0.00 | 99 | 1016.9 |
| 20260831052050 | 64 | 134 | 1.0 | 2.0 | 0.00 | 0.00 | 0.00 | 99 | 1016.9 |
| 20260831051548 | 64 | 162 | 1.0 | 3.0 | 0.00 | 0.00 | 0.00 | 99 | 1016.5 |
| 20260831051047 | 64 | 93 | 2.0 | 6.0 | 0.00 | 0.00 | 0.00 | 99 | 1016.7 |
| 20260831050547 | 64 | 41 | 0.0 | 4.0 | 0.00 | 0.00 | 0.00 | 99 | 1016.4 |
| 20260831050040 | 64 | 20 | 0.0 | 2.0 | 0.00 | 0.00 | 0.00 | 99 | 1016.8 |
| 20260831045539 | 64 | 26 | 1.0 | 2.0 | 0.00 | 0.00 | 0.00 | 99 | 1017.1 |
| 20260831045035 | 64 | 336 | 1.0 | 3.0 | 0.00 | 0.00 | 0.00 | 99 | 1017.2 |
| 20260831044530 | 64 | 9 | 0.0 | 1.0 | 0.00 | 0.00 | 0.00 | 99 | 1017.4 |
| 20260831044026 | 65 | 37 | 2.0 | 2.0 | 0.00 | 0.00 | 0.00 | 99 | 1017.1 |
| 20260831043525 | 65 | 298 | 0.0 | 2.0 | 0.00 | 0.00 | 0.00 | 99 | 1017.0 |
| 20260831043021 | 65 | 24 | 2.0 | 3.0 | 0.00 | 0.00 | 0.00 | 99 | 1017.3 |
| 20260831042520 | 65 | 9 | 0.0 | 2.0 | 0.00 | 0.00 | 0.00 | 99 | 1017.3 |
| 20260831042015 | 65 | 49 | 0.0 | 1.0 | 0.00 | 0.00 | 0.00 | 99 | 1017.3 |
| 20260831041510 | 65 | 24 | 0.0 | 1.0 | 0.00 | 0.00 | 0.00 | 99 | 1017.1 |
| 20260831041004 | 65 | 342 | 0.0 | 1.0 | 0.00 | 0.00 | 0.00 | 99 | 1017.2 |
| 20260831040459 | 65 | 204 | 0.0 | 1.0 | 0.00 | 0.00 | 0.00 | 99 | 1017.0 |
| 20260831035956 | 66 | 217 | 0.0 | 0.0 | 0.00 | 0.24 | 0.24 | 99 | 1017.0 |
| 20260831035456 | 66 | 254 | 0.0 | 0.0 | 0.00 | 0.24 | 0.24 | 99 | 1017.0 |
| 20260831034951 | 66 | 176 | 0.0 | 1.0 | 0.00 | 0.24 | 0.24 | 99 | 1016.9 |
| 20260831034445 | 66 | 9 | 0.0 | 5.0 | 0.00 | 0.24 | 0.24 | 99 | 1016.9 |
| 20260831033941 | 66 | 264 | 0.0 | 1.0 | 0.00 | 0.24 | 0.24 | 99 | 1017.1 |
| 20260831033436 | 66 | 266 | 0.0 | 3.0 | 0.00 | 0.24 | 0.24 | 99 | 1016.8 |
| 20260831032932 | 66 | 330 | 0.0 | 3.0 | 0.00 | 0.24 | 0.24 | 99 | 1016.7 |
| 20260831032431 | 66 | 85 | 0.0 | 6.0 | 0.00 | 0.24 | 0.24 | 99 | 1016.9 |
| 20260831031926 | 66 | 85 | 0.0 | 3.0 | 0.00 | 0.24 | 0.24 | 99 | 1016.6 |
| 20260831031421 | 67 | 102 | 2.0 | 5.0 | 0.00 | 0.24 | 0.24 | 99 | 1016.6 |
| 20260831030915 | 67 | 80 | 2.0 | 2.0 | 0.00 | 0.24 | 0.24 | 99 | 1016.9 |
| 20260831030414 | 67 | 223 | 0.0 | 3.0 | 0.00 | 0.24 | 0.24 | 99 | 1017.0 |
| 20260831025912 | 67 | 9 | 0.0 | 2.0 | 0.00 | 0.24 | 0.24 | 99 | 1017.0 |
| 20260831025412 | 68 | 280 | 0.0 | 3.0 | 0.00 | 0.24 | 0.24 | 99 | 1017.1 |
| 20260831024908 | 68 | 305 | 0.0 | 1.0 | 0.00 | 0.24 | 0.24 | 99 | 1017.2 |
| 20260831024407 | 68 | 4 | 0.0 | 1.0 | 0.00 | 0.24 | 0.24 | 99 | 1017.0 |
| 20260831023902 | 68 | 106 | 0.0 | 0.0 | 0.00 | 0.24 | 0.24 | 99 | 1017.2 |
| 20260831023400 | 68 | 272 | 0.0 | 0.0 | 0.00 | 0.24 | 0.24 | 99 | 1017.1 |
| 20260831022855 | 68 | 272 | 0.0 | 1.0 | 0.00 | 0.24 | 0.24 | 99 | 1017.1 |
| 20260831022354 | 68 | 76 | 0.0 | 0.0 | 0.00 | 0.24 | 0.24 | 99 | 1017.1 |
| 20260831021848 | 68 | 76 | 0.0 | 1.0 | 0.00 | 0.24 | 0.24 | 99 | 1016.9 |
| 20260831021343 | 68 | 62 | 0.0 | 0.0 | 0.00 | 0.24 | 0.24 | 99 | 1016.8 |
| 20260831020839 | 68 | 62 | 0.0 | 1.0 | 0.00 | 0.24 | 0.24 | 99 | 1016.7 |
| 20260831020339 | 68 | 305 | 0.0 | 1.0 | 0.00 | 0.24 | 0.24 | 99 | 1016.8 |
| 20260831015834 | 68 | 44 | 0.0 | 1.0 | 0.00 | 0.24 | 0.24 | 99 | 1016.9 |
| 20260831015330 | 68 | 229 | 0.0 | 1.0 | 0.00 | 0.24 | 0.24 | 99 | 1016.7 |
| 20260831014829 | 68 | 107 | 0.0 | 0.0 | 0.02 | 0.24 | 0.24 | 99 | 1016.7 |
| 20260831014324 | 68 | 159 | 1.0 | 2.0 | 0.47 | 0.24 | 0.24 | 99 | 1016.7 |
| 20260831013821 | 69 | 305 | 2.0 | 5.0 | 1.30 | 0.23 | 0.23 | 99 | 1016.6 |
| 20260831013320 | 69 | 53 | 1.0 | 9.0 | 0.76 | 0.13 | 0.13 | 99 | 1016.7 |
| 20260831012815 | 71 | 165 | 2.0 | 5.0 | 0.02 | 0.01 | 0.01 | 99 | 1016.6 |
| 20260831012311 | 71 | 118 | 1.0 | 2.0 | 0.00 | 0.00 | 0.00 | 99 | 1016.0 |
| 20260831011810 | 71 | 113 | 0.0 | 2.0 | 0.00 | 0.00 | 0.00 | 99 | 1016.1 |
| 20260831011305 | 70 | 90 | 0.0 | 1.0 | 0.00 | 0.00 | 0.00 | 99 | 1016.0 |
| 20260831010800 | 70 | 81 | 0.0 | 1.0 | 0.00 | 0.00 | 0.00 | 99 | 1015.8 |
| 20260831010254 | 70 | 94 | 0.0 | 2.0 | 0.00 | 0.00 | 0.00 | 99 | 1015.8 |
| 20260831005751 | 70 | 107 | 0.0 | 2.0 | 0.00 | 0.00 | 0.00 | 99 | 1015.9 |
| 20260831005246 | 70 | 49 | 0.0 | 1.0 | 0.00 | 0.00 | 0.00 | 99 | 1015.8 |
| 20260831004741 | 70 | 73 | 0.0 | 0.0 | 0.00 | 0.00 | 0.00 | 99 | 1015.8 |
| 20260831004237 | 70 | 37 | 1.0 | 1.0 | 0.00 | 0.00 | 0.00 | 99 | 1015.8 |
| 20260831003732 | 70 | 150 | 0.0 | 2.0 | 0.00 | 0.00 | 0.00 | 99 | 1015.7 |
| 20260831003229 | 70 | 162 | 0.0 | 0.0 | 0.00 | 0.00 | 0.00 | 99 | 1015.8 |
| 20260831002728 | 70 | 189 | 0.0 | 1.0 | 0.00 | 0.00 | 0.00 | 99 | 1015.8 |
| 20260831002227 | 70 | 162 | 0.0 | 1.0 | 0.00 | 0.00 | 0.00 | 99 | 1015.8 |
| 20260831001723 | 70 | 107 | 0.0 | 0.0 | 0.00 | 0.00 | 0.00 | 99 | 1015.9 |
| 20260831001218 | 70 | 113 | 0.0 | 1.0 | 0.00 | 0.00 | 0.00 | 99 | 1015.8 |
| 20260831000715 | 70 | 115 | 0.0 | 1.0 | 0.00 | 0.00 | 0.00 | 99 | 1016.1 |
| 20260831000211 | 70 | 149 | 0.0 | 2.0 | 0.00 | 0.00 | 0.00 | 99 | 1015.7 |
| 20260830235709 | 70 | 203 | 0.0 | 1.0 | 0.00 | 0.00 | 0.00 | 98 | 1015.8 |
| 20260830235204 | 70 | 116 | 0.0 | 2.0 | 0.00 | 0.00 | 0.00 | 98 | 1015.8 |
| 20260830234659 | 71 | 148 | 1.0 | 2.0 | 0.02 | 0.00 | 0.00 | 97 | 1015.3 |
| 20260830234155 | 71 | 245 | 0.0 | 2.0 | 0.02 | 0.00 | 0.00 | 97 | 1015.5 |
| 20260830233650 | 71 | 189 | 0.0 | 2.0 | 0.00 | 0.00 | 0.00 | 96 | 1015.3 |
| 20260830233145 | 71 | 77 | 0.0 | 1.0 | 0.00 | 0.00 | 0.00 | 95 | 1015.8 |
| 20260830232641 | 71 | 242 | 0.0 | 0.0 | 0.00 | 0.00 | 0.00 | 95 | 1015.7 |
| 20260830232137 | 71 | 242 | 0.0 | 1.0 | 0.00 | 0.00 | 0.00 | 94 | 1015.7 |
| 20260830231633 | 72 | 314 | 0.0 | 2.0 | 0.00 | 0.00 | 0.00 | 94 | 1015.8 |
| 20260830231132 | 72 | 250 | 0.0 | 2.0 | 0.00 | 0.00 | 0.00 | 93 | 1015.9 |
| 20260830230627 | 72 | 290 | 1.0 | 4.0 | 0.00 | 0.00 | 0.00 | 92 | 1015.8 |
| 20260830230127 | 73 | 217 | 0.0 | 0.0 | 0.00 | 0.00 | 0.00 | 91 | 1015.8 |
| 20260830225622 | 73 | 217 | 0.0 | 2.0 | 0.00 | 0.00 | 0.00 | 90 | 1015.7 |
| 20260830225117 | 73 | 247 | 1.0 | 3.0 | 0.00 | 0.00 | 0.00 | 88 | 1015.8 |
| 20260830224616 | 74 | 351 | 2.0 | 3.0 | 0.00 | 0.00 | 0.00 | 88 | 1015.8 |
| 20260830224112 | 74 | 332 | 0.0 | 5.0 | 0.00 | 0.00 | 0.00 | 87 | 1015.8 |
| 20260830223609 | 74 | 319 | 0.0 | 2.0 | 0.00 | 0.00 | 0.00 | 86 | 1015.8 |
| 20260830223109 | 74 | 333 | 2.0 | 5.0 | 0.00 | 0.00 | 0.00 | 86 | 1016.0 |
| 20260830222603 | 74 | 278 | 0.0 | 2.0 | 0.00 | 0.00 | 0.00 | 86 | 1015.9 |
| 20260830222059 | 74 | 285 | 2.0 | 3.0 | 0.00 | 0.00 | 0.00 | 85 | 1015.7 |
| 20260830221555 | 75 | 277 | 1.0 | 4.0 | 0.00 | 0.00 | 0.00 | 85 | 1016.0 |
| 20260830221051 | 75 | 351 | 0.0 | 2.0 | 0.00 | 0.00 | 0.00 | 84 | 1015.7 |
| 20260830220545 | 75 | 326 | 0.0 | 3.0 | 0.00 | 0.00 | 0.00 | 84 | 1015.8 |
| 20260830220043 | 75 | 316 | 3.0 | 4.0 | 0.00 | 0.00 | 0.00 | 83 | 1015.8 |
| 20260830215538 | 75 | 298 | 2.0 | 6.0 | 0.00 | 0.00 | 0.00 | 83 | 1015.7 |
| 20260830215032 | 75 | 306 | 1.0 | 1.0 | 0.00 | 0.00 | 0.00 | 83 | 1015.6 |
| 20260830214528 | 75 | 71 | 2.0 | 3.0 | 0.00 | 0.00 | 0.00 | 82 | 1015.9 |
| 20260830214027 | 76 | 1 | 2.0 | 3.0 | 0.00 | 0.00 | 0.00 | 83 | 1015.7 |
| 20260830213522 | 76 | 349 | 1.0 | 3.0 | 0.00 | 0.00 | 0.00 | 81 | 1015.8 |
| 20260830213018 | 76 | 332 | 0.0 | 5.0 | 0.00 | 0.00 | 0.00 | 80 | 1015.8 |
| 20260830212513 | 75 | 287 | 2.0 | 4.0 | 0.00 | 0.00 | 0.00 | 80 | 1015.8 |
| 20260830212008 | 75 | 6 | 0.0 | 4.0 | 0.00 | 0.00 | 0.00 | 80 | 1015.6 |
| 20260830211503 | 76 | 301 | 2.0 | 4.0 | 0.00 | 0.00 | 0.00 | 80 | 1015.6 |
| 20260830210957 | 76 | 325 | 5.0 | 7.0 | 0.00 | 0.00 | 0.00 | 79 | 1015.8 |
| 20260830210457 | 76 | 293 | 0.0 | 5.0 | 0.00 | 0.00 | 0.00 | 79 | 1015.7 |
| 20260830205955 | 76 | 233 | 4.0 | 5.0 | 0.00 | 0.00 | 0.00 | 78 | 1015.7 |
| 20260830205454 | 76 | 325 | 5.0 | 7.0 | 0.00 | 0.00 | 0.00 | 78 | 1015.9 |
| 20260830204950 | 76 | 258 | 2.0 | 3.0 | 0.00 | 0.00 | 0.00 | 78 | 1015.8 |
| 20260830204449 | 76 | 238 | 0.0 | 4.0 | 0.00 | 0.00 | 0.00 | 78 | 1015.7 |
| 20260830203944 | 76 | 79 | 0.0 | 2.0 | 0.00 | 0.00 | 0.00 | 78 | 1015.9 |
| 20260830203440 | 76 | 248 | 2.0 | 4.0 | 0.00 | 0.00 | 0.00 | 77 | 1015.8 |
| 20260830202939 | 76 | 309 | 3.0 | 5.0 | 0.00 | 0.00 | 0.00 | 76 | 1016.1 |
| 20260830202434 | 75 | 70 | 1.0 | 5.0 | 0.00 | 0.00 | 0.00 | 77 | 1015.8 |
| 20260830201930 | 75 | 246 | 4.0 | 5.0 | 0.00 | 0.00 | 0.00 | 78 | 1016.1 |
| 20260830201424 | 75 | 294 | 2.0 | 3.0 | 0.00 | 0.00 | 0.00 | 77 | 1016.0 |
| 20260830200920 | 75 | 322 | 2.0 | 7.0 | 0.00 | 0.00 | 0.00 | 76 | 1016.2 |
| 20260830200419 | 75 | 5 | 1.0 | 2.0 | 0.00 | 0.00 | 0.00 | 77 | 1016.1 |
| 20260830195909 | 75 | 304 | 1.0 | 3.0 | 0.00 | 0.00 | 0.00 | 78 | 1016.0 |
| 20260830195408 | 76 | 13 | 4.0 | 6.0 | 0.00 | 0.00 | 0.00 | 76 | 1016.1 |
| 20260830194901 | 76 | 311 | 0.0 | 2.0 | 0.00 | 0.00 | 0.00 | 78 | 1016.2 |
| 20260830194400 | 76 | 8 | 2.0 | 4.0 | 0.00 | 0.00 | 0.00 | 76 | 1016.3 |
| 20260830193855 | 77 | 271 | 2.0 | 3.0 | 0.00 | 0.00 | 0.00 | 75 | 1016.3 |
| 20260830193354 | 77 | 271 | 1.0 | 4.0 | 0.00 | 0.00 | 0.00 | 74 | 1016.4 |
| 20260830192850 | 77 | 70 | 2.0 | 8.0 | 0.00 | 0.00 | 0.00 | 73 | 1016.3 |
| 20260830192350 | 76 | 300 | 1.0 | 6.0 | 0.00 | 0.00 | 0.00 | 73 | 1016.6 |
| 20260830191846 | 76 | 274 | 3.0 | 9.0 | 0.00 | 0.00 | 0.00 | 72 | 1016.6 |
| 20260830191345 | 77 | 310 | 2.0 | 9.0 | 0.00 | 0.00 | 0.00 | 72 | 1016.8 |
| 20260830190841 | 77 | 292 | 4.0 | 7.0 | 0.00 | 0.00 | 0.00 | 71 | 1017.1 |
| 20260830190336 | 77 | 9 | 3.0 | 8.0 | 0.00 | 0.00 | 0.00 | 71 | 1016.8 |
| 20260830185834 | 77 | 314 | 2.0 | 9.0 | 0.00 | 0.00 | 0.00 | 71 | 1017.0 |
| 20260830185330 | 78 | 31 | 5.0 | 5.0 | 0.00 | 0.00 | 0.00 | 70 | 1016.9 |
| 20260830184825 | 78 | 277 | 3.0 | 8.0 | 0.00 | 0.00 | 0.00 | 70 | 1017.3 |
| 20260830184324 | 77 | 312 | 3.0 | 7.0 | 0.00 | 0.00 | 0.00 | 72 | 1017.0 |
| 20260830183814 | 77 | 311 | 2.0 | 5.0 | 0.00 | 0.00 | 0.00 | 71 | 1017.4 |
| 20260830183313 | 77 | 329 | 6.0 | 9.0 | 0.00 | 0.00 | 0.00 | 69 | 1017.3 |
| 20260830182809 | 77 | 34 | 2.0 | 7.0 | 0.00 | 0.00 | 0.00 | 70 | 1017.3 |
| 20260830182306 | 78 | 326 | 2.0 | 8.0 | 0.00 | 0.00 | 0.00 | 69 | 1017.4 |
| 20260830181801 | 78 | 349 | 4.0 | 12.0 | 0.00 | 0.00 | 0.00 | 67 | 1017.3 |
| 20260830181255 | 78 | 322 | 4.0 | 7.0 | 0.00 | 0.00 | 0.00 | 66 | 1017.3 |
| 20260830180754 | 79 | 309 | 3.0 | 10.0 | 0.00 | 0.00 | 0.00 | 64 | 1017.4 |
| 20260830180249 | 78 | 310 | 2.0 | 6.0 | 0.00 | 0.00 | 0.00 | 68 | 1017.3 |
| 20260830175743 | 78 | 316 | 2.0 | 6.0 | 0.00 | 0.00 | 0.00 | 65 | 1017.4 |
| 20260830175238 | 78 | 226 | 2.0 | 5.0 | 0.00 | 0.00 | 0.00 | 65 | 1017.3 |